Radiation Dose measured at exhaust stack monitor of Miscellaneous Solid Waste Incinerator Building/Incinerator raregas monitor
Date,Time,Incinerator Gas Monitor(cps),Wind Direction,Wind Velocity(m/s)
2022/02/18,00:00,1.4,west-southwest,7.4
2022/02/18,00:10,1.6,west-southwest,7.4
2022/02/18,00:20,1.6,west-southwest,7.3
2022/02/18,00:30,1.5,west-southwest,8.4
2022/02/18,00:40,1.5,southwest,6.7
2022/02/18,00:50,1.5,southwest,6.5
2022/02/18,01:00,1.4,southwest,7.1
2022/02/18,01:10,1.6,southwest,8.0
2022/02/18,01:20,1.4,southwest,7.0
2022/02/18,01:30,1.5,south-southwest,4.9
2022/02/18,01:40,1.6,south,5.9
2022/02/18,01:50,1.4,south,7.4
2022/02/18,02:00,1.5,south,7.7
2022/02/18,02:10,1.5,south,7.3
2022/02/18,02:20,1.7,south,7.7
2022/02/18,02:30,1.5,south-southwest,7.9
2022/02/18,02:40,1.6,south,6.2
2022/02/18,02:50,1.5,south-southwest,6.5
2022/02/18,03:00,1.4,south-southwest,5.7
2022/02/18,03:10,1.5,south-southwest,5.6
2022/02/18,03:20,1.5,south,4.2
2022/02/18,03:30,1.6,southwest,4.5
2022/02/18,03:40,1.6,south-southwest,4.0
2022/02/18,03:50,1.6,southwest,6.1
2022/02/18,04:00,1.5,southwest,5.5
2022/02/18,04:10,1.4,southwest,5.6
2022/02/18,04:20,1.5,south-southwest,5.3
2022/02/18,04:30,1.6,south-southwest,6.2
2022/02/18,04:40,1.5,southwest,7.0
2022/02/18,04:50,1.5,south-southwest,6.7
2022/02/18,05:00,1.5,south-southwest,6.9
2022/02/18,05:10,1.6,south-southwest,6.5
2022/02/18,05:20,1.6,southwest,4.7
2022/02/18,05:30,1.5,west-southwest,2.9
2022/02/18,05:40,1.5,west-southwest,5.1
2022/02/18,05:50,1.5,west-southwest,4.1
2022/02/18,06:00,1.6,west,3.1
2022/02/18,06:10,1.5,northwest,4.1
2022/02/18,06:20,1.5,north-northwest,8.4
2022/02/18,06:30,1.6,north-northwest,8.6
2022/02/18,06:40,1.6,north-northwest,7.6
2022/02/18,06:50,1.5,north-northwest,7.3
2022/02/18,07:00,1.6,north-northwest,7.4
2022/02/18,07:10,1.5,northwest,7.8
2022/02/18,07:20,1.6,north-northwest,7.7
2022/02/18,07:30,1.5,north-northwest,7.2
2022/02/18,07:40,1.6,northwest,6.8
2022/02/18,07:50,1.5,northwest,6.5
2022/02/18,08:00,1.5,north-northwest,6.3
2022/02/18,08:10,1.6,northwest,7.4
2022/02/18,08:20,1.5,north-northwest,6.8
2022/02/18,08:30,1.5,north-northwest,7.5
2022/02/18,08:40,1.5,north-northwest,6.8
2022/02/18,08:50,1.5,north-northwest,8.4
2022/02/18,09:00,1.4,north-northwest,9.0
2022/02/18,09:10,1.6,north-northwest,10.2
2022/02/18,09:20,1.5,north-northwest,10.8
2022/02/18,09:30,1.6,north-northwest,8.9
2022/02/18,09:40,1.6,north-northwest,10.0
2022/02/18,09:50,1.6,north-northwest,8.9
2022/02/18,10:00,1.4,north-northwest,8.5
2022/02/18,10:10,1.6,north-northwest,7.7
2022/02/18,10:20,1.4,north-northwest,7.9
2022/02/18,10:30,1.6,north-northwest,6.9
2022/02/18,10:40,1.5,north-northwest,6.1
2022/02/18,10:50,1.5,north-northwest,6.0
2022/02/18,11:00,1.5,north,6.5
2022/02/18,11:10,1.5,north-northwest,6.6
2022/02/18,11:20,1.5,north-northwest,7.1
2022/02/18,11:30,1.5,north-northwest,7.5
2022/02/18,11:40,1.5,north,6.3
2022/02/18,11:50,1.6,north-northeast,5.9
2022/02/18,12:00,1.5,north-northeast,5.8
2022/02/18,12:10,1.5,north-northeast,5.4
2022/02/18,12:20,1.6,north-northeast,7.0
2022/02/18,12:30,1.5,north-northeast,6.8
2022/02/18,12:40,1.5,north-northeast,6.1
2022/02/18,12:50,1.5,north-northeast,5.6
2022/02/18,13:00,1.5,north-northeast,6.0
2022/02/18,13:10,1.4,north-northeast,6.1
2022/02/18,13:20,1.5,north-northeast,5.6
2022/02/18,13:30,1.5,north-northeast,5.8
2022/02/18,13:40,1.5,north-northeast,5.4
2022/02/18,13:50,1.5,north-northeast,5.3
2022/02/18,14:00,1.5,northeast,5.4
2022/02/18,14:10,1.5,north-northeast,6.0
2022/02/18,14:20,1.5,north-northeast,5.0
2022/02/18,14:30,1.6,north,3.5
2022/02/18,14:40,1.5,east-northeast,1.5
2022/02/18,14:50,1.6,northeast,3.0
2022/02/18,15:00,1.4,northeast,2.3
2022/02/18,15:10,1.4,east-southeast,2.6
2022/02/18,15:20,1.5,southeast,2.9
2022/02/18,15:30,1.4,southeast,2.6
2022/02/18,15:40,1.5,southeast,3.4
2022/02/18,15:50,1.6,south,2.8
2022/02/18,16:00,1.5,south-southeast,2.0
2022/02/18,16:10,1.5,east-southeast,1.9
2022/02/18,16:20,1.5,east-southeast,1.5
2022/02/18,16:30,1.5,east-southeast,2.3
2022/02/18,16:40,1.5,southeast,0.9
2022/02/18,16:50,1.5,southeast,2.0
2022/02/18,17:00,1.5,east-southeast,1.5
2022/02/18,17:10,1.6,east,0.8
2022/02/18,17:20,1.4,south,1.5
2022/02/18,17:30,1.3,south-southwest,1.7
2022/02/18,17:40,1.4,south-southwest,2.0
2022/02/18,17:50,1.4,south-southwest,2.0
2022/02/18,18:00,1.6,south,1.7
2022/02/18,18:10,1.6,west-southwest,1.2
2022/02/18,18:20,1.5,-,CALM
2022/02/18,18:30,1.5,south-southeast,1.2
2022/02/18,18:40,1.5,south,1.5
2022/02/18,18:50,1.5,south-southeast,0.6
2022/02/18,19:00,1.6,south-southeast,1.5
2022/02/18,19:10,1.5,south-southeast,1.9
2022/02/18,19:20,1.5,south,1.5
2022/02/18,19:30,1.5,southwest,1.2
2022/02/18,19:40,1.5,southwest,0.9
2022/02/18,19:50,1.6,west,0.9
2022/02/18,20:00,1.4,west-southwest,1.2
2022/02/18,20:10,1.5,west-southwest,2.0
2022/02/18,20:20,1.5,west-southwest,1.9
2022/02/18,20:30,1.5,west-southwest,1.2
2022/02/18,20:40,1.4,west,1.7
2022/02/18,20:50,1.5,west,2.0
2022/02/18,21:00,1.5,west,3.3
2022/02/18,21:10,1.5,west,4.1
2022/02/18,21:20,1.5,west-northwest,4.7
2022/02/18,21:30,1.5,west-northwest,4.0
2022/02/18,21:40,1.5,west-northwest,2.3
2022/02/18,21:50,1.6,west-northwest,2.0
2022/02/18,22:00,1.5,west,2.6
2022/02/18,22:10,1.5,west,3.3
2022/02/18,22:20,1.5,west,4.0
2022/02/18,22:30,1.5,west,3.8
2022/02/18,22:40,1.5,west-northwest,2.6
2022/02/18,22:50,1.6,west-northwest,3.1
2022/02/18,23:00,1.4,west-northwest,3.3
2022/02/18,23:10,1.5,northwest,2.9
2022/02/18,23:20,1.4,northwest,2.0
2022/02/18,23:30,1.5,northwest,2.0
2022/02/18,23:40,1.5,northwest,3.4
2022/02/18,23:50,1.5,northwest,4.3
